Location: Aciu?a
(46.2833°N, 22.4500°E)
Time: 06:03:24
(UTC+00:00)

Cosmos 2219 Rocket - Pass Details

Date: 25 October 2021
Orbit: 826 x 848 km, 71.0° (Epoch: 04 December)

Event Time Altitude Azimuth Distance (km) Brightness Sun altitude
Rises 17:54:37 0° 200° (SSW) 3,352 5.4 -26.2°
Reaches altitude 10° 17:57:02 10° 198° (SSW) 2,424 4.7 -26.6°
Enters shadow 18:01:15 53° 185° (S) 1,012 2.5 -27.3°
